[[{"header":{"parameterUnit":"m.s-1","parameterCategory":1,"la1":30.2991,"la2":30.254,"lo1":-89.0895,"lo2":-89.0444,"dy":0.0017,"dx":0.0017,"nx":28,"ny":28,"refTime":"2025-12-29T03:00:00:Z","depth":0,"parameterNumber":2,"parameterNumberName":"U-component_of_WINDS"},"data":[0,0,0,0,0,0,0,0,0,0,0,0,0,0,0,0,0,0,0,0,0,0,0,0,0,0,0,0,0,0,0,0,0,0,0,0,0,0,0,0,0,0,0,0,0,0,0,0,0,0,0,0,0,0,0,0,0,0,1.0892,1.0892,0,1.0862,1.0862,1.0862,1.0852,1.0852,1.0852,1.0852,1.0818,1.0817,1.0816,0,0,0,0,0,0,0,0,0,0,0,0,0,1.0939,1.0938,1.0892,1.0892,1.0892,1.0862,1.0862,1.0862,1.0852,1.0852,1.0852,1.0852,1.0819,1.0817,1.0816,0,0,0,0,0,0,0,0,0,0,0,0,0,1.0915,1.0938,1.0892,1.0883,1.0882,1.0862,1.0862,1.0861,1.0852,1.0852,1.0852,1.0852,1.0819,1.0818,1.0816,1.0802,0,0,1.0811,1.0811,0,0,0,0,0,0,0,0,1.0916,1.0913,1.0885,1.0884,1.0883,1.0861,1.0866,1.0841,1.0852,1.0863,1.0852,1.0852,1.0832,1.083,1.0823,1.0801,1.0799,1.0811,1.081,1.081,1.0809,0,0,0,0,0,0,0,1.0918,1.0914,1.088,1.0885,1.0883,1.088,1.0877,1.0861,1.0847,1.0862,1.0861,1.0858,1.0832,1.0825,1.0822,1.0799,1.0811,1.081,1.0809,1.0808,1.0764,1.0764,0,0,0,0,0,0,1.0921,1.0916,1.0881,1.0879,1.09,1.0879,1.0875,1.0868,1.0847,1.0844,1.0858,1.0858,1.0827,1.0824,1.0821,1.0804,1.081,1.0808,1.0807,1.0764,1.0764,1.0764,0,0,0,0,0,0,1.0922,1.0918,1.0882,1.0897,1.0893,1.0878,1.0869,1.0867,1.086,1.0844,1.0841,1.0854,1.0827,1.0823,1.0808,1.0803,1.0807,1.0806,1.0765,1.0764,1.0764,1.077,0,0,0,0,0,0,1.0924,1.0919,1.0914,1.0897,1.0892,1.087,1.0869,1.0866,1.0858,1.0858,1.0839,1.0836,1.0827,1.081,1.0806,1.0801,1.0805,1.0765,1.0765,1.0764,1.077,1.077,1.077,0,0,0,0,0,1.0926,1.0916,1.0914,1.0909,1.0885,1.087,1.0866,1.0857,1.0858,1.0852,1.0842,1.0837,1.0804,1.0808,1.0804,1.0798,1.0765,1.0765,1.0764,1.077,1.077,1.077,0,0,0,0,0,0,1.093,1.0913,1.0911,1.0895,1.0884,1.0868,1.0861,1.0857,1.0844,1.0844,1.0832,1.0828,1.0813,1.0804,1.0809,1.0784,1.0785,1.0783,1.0791,1.079,1.079,1.0792,1.0804,0,0,0,0,0,1.093,1.0919,1.0905,1.0893,1.0887,1.0875,1.0868,1.0862,1.0849,1.0844,1.0832,1.0819,1.0806,1.0798,1.0785,1.0769,1.0765,1.0763,1.0763,1.0763,1.0761,1.0753,1.0752,1.0762,1.0762,1.0762,0,0,1.0928,1.0918,1.0911,1.0893,1.0884,1.0873,1.0871,1.0859,1.085,1.0842,1.0826,1.0818,1.0802,1.0787,1.0779,1.0779,1.0758,1.0762,1.0762,1.0761,1.0752,1.0752,1.0751,1.0762,1.0762,1.0762,0,0,1.092,1.0911,1.09,1.0891,1.0878,1.087,1.0867,1.0852,1.0846,1.0831,1.0825,1.0814,1.0792,1.0782,1.0774,1.0763,1.0758,1.0759,1.0758,1.075,1.0749,1.0748,1.0745,1.0743,1.0758,1.0758,1.0758,0,1.0919,1.0902,1.0895,1.0883,1.0876,1.0869,1.0858,1.085,1.0832,1.0827,1.0827,1.08,1.0789,1.0771,1.0769,1.0763,1.0759,1.0761,1.075,1.0749,1.0748,1.0745,1.0743,1.0758,1.0758,1.0758,1.0758,0,1.0902,1.0891,1.0884,1.0869,1.0861,1.0849,1.084,1.0832,1.0827,1.082,1.0804,1.0792,1.0777,1.0772,1.0767,1.0754,1.0754,1.0752,1.0752,1.0748,1.0744,1.0743,1.0759,1.0759,1.0759,1.0758,0,0,1.0894,1.0877,1.0874,1.0868,1.0853,1.0844,1.0833,1.0819,1.0813,1.0801,1.0792,1.0774,1.0773,1.0764,1.0757,1.075,1.0743,1.0749,1.0749,1.0749,1.0729,1.073,1.0729,1.0741,1.074,1.074,1.073,0,1.0883,1.0864,1.0858,1.0841,1.0831,1.0826,1.0816,1.0806,1.0799,1.0789,1.0781,1.0768,1.0768,1.0762,1.0755,1.0746,1.0739,1.0746,1.0731,1.073,1.0734,1.0727,1.0728,1.0719,1.0729,1.0729,1.0728,0,1.0868,1.0858,1.0841,1.0829,1.0825,1.0816,1.0804,1.0794,1.0783,1.0778,1.0769,1.0764,1.0752,1.0754,1.0737,1.0742,1.0735,1.073,1.0729,1.0727,1.0729,1.0724,1.0716,1.0715,1.0726,1.0726,1.0726,0,1.0864,1.0846,1.0834,1.0828,1.0814,1.0808,1.0802,1.0791,1.0784,1.0773,1.0768,1.0756,1.0749,1.0739,1.073,1.0732,1.0715,1.0715,1.071,1.071,1.0706,1.0706,1.0696,1.0702,1.0702,1.0702,1.0702,0,1.0852,1.0842,1.0832,1.0824,1.0813,1.0806,1.0795,1.0788,1.0779,1.0769,1.0764,1.0755,1.0745,1.0735,1.0728,1.0715,1.0712,1.0708,1.0706,1.0708,1.0708,1.0703,1.0703,1.0702,1.0702,1.0702,1.0702,0,1.0844,1.0838,1.0824,1.0813,1.0809,1.0802,1.0791,1.0784,1.0777,1.0766,1.0763,1.0752,1.074,1.0731,1.0715,1.0711,1.0697,1.0696,1.0702,1.0701,1.0696,1.0696,1.0682,1.0679,1.0687,1.0687,1.0687,0,1.0837,1.0829,1.0818,1.0812,1.0806,1.0796,1.079,1.0783,1.0776,1.0763,1.0757,1.0745,1.0735,1.0717,1.0707,1.0695,1.0693,1.0689,1.0691,1.0693,1.0693,1.0693,1.0692,1.0688,1.0688,1.0688,1.0688,0,1.0824,1.0822,1.0813,1.0803,1.0796,1.0787,1.0779,1.0774,1.0765,1.0758,1.0747,1.0739,1.0724,1.0712,1.07,1.0693,1.0689,1.0688,1.0686,1.0687,1.0691,1.0689,1.07,1.0687,1.0687,1.0687,1.0688,1.0688,1.0816,1.081,1.0801,1.0792,1.0785,1.0778,1.077,1.0764,1.0755,1.0743,1.0739,1.0727,1.0717,1.07,1.0693,1.0684,1.0684,1.0681,1.068,1.0679,1.068,1.0693,1.0682,1.0682,1.0682,1.0682,1.0682,0,1.0804,1.0798,1.079,1.0779,1.0772,1.0771,1.0761,1.0755,1.0745,1.0737,1.0728,1.0715,1.0704,1.0695,1.0684,1.0678,1.0676,1.0675,1.0675,1.0674,1.068,1.0683,1.0677,1.0677,1.0677,1.0677,1.0677,1.0677,1.0796,1.0785,1.0782,1.0768,1.0762,1.0752,1.0747,1.074,1.0734,1.072,1.0712,1.0706,1.0697,1.0686,1.0676,1.0673,1.0669,1.0669,1.0666,1.0672,1.0673,1.0673,1.0676,1.0668,1.0668,1.066,1.066,1.066]},{"header":{"parameterUnit":"m.s-1","parameterCategory":1,"la1":30.2991,"la2":30.254,"lo1":-89.0895,"lo2":-89.0444,"dy":0.0017,"dx":0.0017,"nx":28,"ny":28,"refTime":"2025-12-29T03:00:00:Z","depth":0,"parameterNumber":3,"parameterNumberName":"V-component_of_WINDS"},"data":[0,0,0,0,0,0,0,0,0,0,0,0,0,0,0,0,0,0,0,0,0,0,0,0,0,0,0,0,0,0,0,0,0,0,0,0,0,0,0,0,0,0,0,0,0,0,0,0,0,0,0,0,0,0,0,0,0,0,-7.3792,-7.3794,0,-7.394,-7.3942,-7.3943,-7.3889,-7.3886,-7.3882,-7.3879,-7.4024,-7.4031,-7.4038,0,0,0,0,0,0,0,0,0,0,0,0,0,-7.3459,-7.3465,-7.3792,-7.3794,-7.3796,-7.394,-7.3942,-7.3944,-7.389,-7.3885,-7.3881,-7.3878,-7.4022,-7.403,-7.4038,0,0,0,0,0,0,0,0,0,0,0,0,0,-7.3604,-7.3467,-7.3792,-7.3787,-7.3788,-7.3939,-7.3942,-7.3944,-7.389,-7.3885,-7.388,-7.3876,-7.4019,-7.4029,-7.4039,-7.4203,0,0,-7.4071,-7.4076,0,0,0,0,0,0,0,0,-7.3596,-7.3617,-7.3785,-7.3787,-7.3789,-7.3891,-7.3877,-7.4031,-7.3892,-7.3851,-7.3879,-7.3873,-7.3983,-7.3996,-7.4035,-7.421,-7.4216,-7.4072,-7.4078,-7.4083,-7.4086,0,0,0,0,0,0,0,-7.3586,-7.361,-7.385,-7.3788,-7.379,-7.3775,-7.379,-7.3906,-7.3943,-7.3854,-7.3851,-7.3869,-7.3983,-7.4025,-7.4038,-7.4218,-7.4072,-7.4081,-7.4088,-7.4092,-7.4536,-7.4542,0,0,0,0,0,0,-7.3576,-7.3602,-7.3846,-7.3855,-7.3678,-7.3785,-7.3802,-7.3863,-7.3942,-7.3949,-7.3873,-7.3866,-7.401,-7.4026,-7.4043,-7.4241,-7.4083,-7.4093,-7.4099,-7.4531,-7.4537,-7.4543,0,0,0,0,0,0,-7.3569,-7.3599,-7.384,-7.3728,-7.3757,-7.3796,-7.3865,-7.3869,-7.391,-7.3956,-7.3962,-7.391,-7.4006,-7.4028,-7.4164,-7.4245,-7.4097,-7.4107,-7.4524,-7.4533,-7.4541,-7.4637,0,0,0,0,0,0,-7.356,-7.3596,-7.366,-7.373,-7.3764,-7.3961,-7.387,-7.3875,-7.3929,-7.3921,-7.3992,-7.3999,-7.4004,-7.4149,-7.4175,-7.4257,-7.4115,-7.4517,-7.4528,-7.4538,-7.4627,-7.4648,-7.4666,0,0,0,0,0,-7.3548,-7.368,-7.3664,-7.3694,-7.3845,-7.3966,-7.3985,-7.399,-7.3936,-7.4,-7.4029,-7.3996,-7.4232,-7.4164,-7.4192,-7.4278,-7.4512,-7.4525,-7.4537,-7.4619,-7.4644,-7.4665,0,0,0,0,0,0,-7.3617,-7.3689,-7.3672,-7.383,-7.3893,-7.3957,-7.4037,-7.4017,-7.4094,-7.4083,-7.4085,-7.4101,-7.4242,-7.4273,-7.4196,-7.4441,-7.4364,-7.4382,-7.4416,-7.444,-7.4459,-7.4449,-7.4124,0,0,0,0,0,-7.3651,-7.3745,-7.3802,-7.3937,-7.3969,-7.3998,-7.4051,-7.405,-7.4114,-7.4139,-7.4179,-7.424,-7.4328,-7.4386,-7.4469,-7.4631,-7.4646,-7.4704,-7.4724,-7.4739,-7.4756,-7.4844,-7.4871,-7.4585,-7.4584,-7.4584,0,0,-7.3721,-7.3772,-7.3831,-7.3952,-7.4,-7.4096,-7.4021,-7.4125,-7.4196,-7.4154,-7.4287,-7.4318,-7.4386,-7.4537,-7.4605,-7.4567,-7.4838,-7.4755,-7.4768,-7.4775,-7.486,-7.4887,-7.4911,-7.4593,-7.4592,-7.459,0,0,-7.3899,-7.3947,-7.4065,-7.4116,-7.4191,-7.4209,-7.4238,-7.4305,-7.4325,-7.4458,-7.4429,-7.4512,-7.4664,-7.4714,-7.4759,-7.4958,-7.493,-7.4985,-7.5086,-7.5172,-7.5195,-7.5215,-7.5286,-7.5311,-7.5001,-7.5001,-7.5001,0,-7.3976,-7.4122,-7.4128,-7.4236,-7.429,-7.4259,-7.4377,-7.4425,-7.4523,-7.456,-7.4516,-7.4707,-7.475,-7.4913,-7.4962,-7.4999,-7.5031,-7.4977,-7.5191,-7.5211,-7.523,-7.5298,-7.5325,-7.5007,-7.5006,-7.5006,-7.5005,0,-7.4214,-7.4316,-7.4402,-7.45,-7.4563,-7.4676,-7.4697,-7.476,-7.4753,-7.4776,-7.4912,-7.4964,-7.5057,-7.5095,-7.5089,-7.5257,-7.5232,-7.519,-7.5112,-7.5264,-7.5327,-7.5353,-7.5016,-7.5014,-7.5012,-7.501,0,0,-7.4439,-7.454,-7.4571,-7.4616,-7.4696,-7.4774,-7.4885,-7.4979,-7.5033,-7.5101,-7.5194,-7.5324,-7.5286,-7.5338,-7.5337,-7.5413,-7.5567,-7.5362,-7.5363,-7.5398,-7.5756,-7.5787,-7.5817,-7.5549,-7.5554,-7.5558,-7.575,0,-7.4623,-7.4821,-7.483,-7.5009,-7.5103,-7.5075,-7.5172,-7.5231,-7.5255,-7.5337,-7.5362,-7.5455,-7.5398,-7.5429,-7.5503,-7.5533,-7.5639,-7.5519,-7.5634,-7.5639,-7.5619,-7.585,-7.5884,-7.6062,-7.5775,-7.5779,-7.5782,0,-7.4865,-7.4944,-7.5134,-7.5203,-7.5242,-7.5329,-7.5417,-7.5496,-7.5562,-7.5574,-7.5633,-7.5621,-7.5733,-7.5652,-7.5806,-7.5724,-7.5772,-7.5793,-7.58,-7.5811,-7.572,-7.5868,-7.6119,-7.6146,-7.5822,-7.5818,-7.5816,0,-7.5011,-7.5164,-7.5298,-7.5337,-7.542,-7.5482,-7.5519,-7.558,-7.5637,-7.5712,-7.5749,-7.5835,-7.5883,-7.5949,-7.5961,-7.5901,-7.6116,-7.6035,-7.6128,-7.6128,-7.6175,-7.6172,-7.6438,-7.6205,-7.6205,-7.6204,-7.6203,0,-7.5217,-7.5334,-7.5365,-7.5447,-7.5577,-7.5585,-7.5713,-7.5745,-7.5801,-7.5887,-7.5867,-7.5949,-7.5959,-7.6043,-7.6052,-7.6178,-7.62,-7.6212,-7.6213,-7.6214,-7.6213,-7.6245,-7.6233,-7.6211,-7.621,-7.6208,-7.6207,0,-7.5402,-7.5427,-7.5571,-7.5639,-7.5659,-7.5752,-7.5809,-7.5887,-7.5909,-7.6019,-7.6046,-7.608,-7.6178,-7.6196,-7.6311,-7.6317,-7.6468,-7.6456,-7.6447,-7.6445,-7.6538,-7.6529,-7.6834,-7.6875,-7.6615,-7.6618,-7.662,0,-7.5532,-7.5622,-7.57,-7.5758,-7.5799,-7.5892,-7.5951,-7.5961,-7.6022,-7.6105,-7.6173,-7.6269,-7.6347,-7.6504,-7.6538,-7.6625,-7.6616,-7.6717,-7.6629,-7.6627,-7.6618,-7.6613,-7.6622,-7.6734,-7.6736,-7.6739,-7.6741,0,-7.576,-7.5768,-7.5854,-7.5946,-7.6016,-7.6088,-7.6155,-7.6203,-7.6223,-7.6292,-7.6393,-7.6454,-7.6572,-7.6667,-7.6755,-7.679,-7.6769,-7.6768,-7.6795,-7.6797,-7.6788,-7.6795,-7.6493,-7.6761,-7.6759,-7.6758,-7.6756,-7.6756,-7.5921,-7.6001,-7.6069,-7.6165,-7.6218,-7.6282,-7.6359,-7.6393,-7.6478,-7.6577,-7.6577,-7.6688,-7.6751,-7.6867,-7.6909,-7.6994,-7.6962,-7.7,-7.701,-7.7019,-7.7028,-7.6774,-7.701,-7.701,-7.7009,-7.7009,-7.7008,0,-7.6149,-7.6192,-7.6281,-7.6378,-7.6454,-7.6429,-7.6503,-7.6567,-7.6666,-7.6728,-7.6806,-7.6922,-7.7015,-7.7057,-7.7148,-7.7208,-7.7201,-7.7232,-7.7228,-7.7236,-7.7052,-7.702,-7.7237,-7.7236,-7.7236,-7.7236,-7.7236,-7.7236,-7.6277,-7.641,-7.6427,-7.6585,-7.6626,-7.6737,-7.6781,-7.684,-7.689,-7.7022,-7.71,-7.7127,-7.7181,-7.7276,-7.736,-7.737,-7.7404,-7.744,-7.7445,-7.7272,-7.7249,-7.7227,-7.7198,-7.7448,-7.7448,-7.7623,-7.7625,-7.7626]}]]